Tracking 27122 objects as of 25-Mar-2023
HD Live streaming from Space Station
objects crossing your sky now

M2-A

Track M2-A now!
10-day predictions


NORAD ID: 47967
Int'l Code: 2021-023C
Perigee: 534.9 km
Apogee: 546.5 km
Inclination: 45.0 °
Period: 95.3 minutes
Semi major axis: 6911 km
RCS: Unknown
Launch date: March 22, 2021
Source: United States (US)
Launch site: Rocket Lab Launch Complex (RLLC)
Your satellite tracking list
Your tracking list is empty




NASA's NSSDC Master Catalog

Two Line Element Set (TLE):
1 47967U 21023C   23084.14684270  .00018434  00000-0  11014-2 0  9999
2 47967  44.9998 193.8961 0008385  35.6697 324.4739 15.10861842110410
Source of the keplerian elements: AFSPC